[[{"header":{"parameterUnit":"m.s-1","parameterCategory":1,"la1":30.2991,"la2":30.254,"lo1":-89.0895,"lo2":-89.0444,"dy":0.0017,"dx":0.0017,"nx":28,"ny":28,"refTime":"2024-04-25T03:00:00:Z","depth":0,"parameterNumber":2,"parameterNumberName":"U-component_of_WINDS"},"data":[0,0,0,0,0,0,0,0,0,0,0,0,0,0,0,0,0,0,0,0,0,0,0,0,0,0,0,0,0,0,0,0,0,0,0,0,0,0,0,0,0,0,0,0,0,0,0,0,0,0,0,0,0,0,0,0,0,0,0.3648,0.3649,0,0.3729,0.373,0.3731,0.3765,0.3765,0.3765,0.3765,0.3847,0.3849,0.3852,0,0,0,0,0,0,0,0,0,0,0,0,0,0.352,0.3522,0.3648,0.3649,0.365,0.3729,0.373,0.3731,0.3765,0.3765,0.3765,0.3765,0.3846,0.3849,0.3852,0,0,0,0,0,0,0,0,0,0,0,0,0,0.3586,0.3523,0.3648,0.3676,0.368,0.3729,0.373,0.3732,0.3765,0.3765,0.3765,0.3764,0.3845,0.3849,0.3852,0.3879,0,0,0.3863,0.3864,0,0,0,0,0,0,0,0,0.3582,0.3591,0.3671,0.3674,0.3678,0.3737,0.3715,0.3781,0.3765,0.3733,0.3765,0.3764,0.381,0.3817,0.3833,0.3883,0.3886,0.3863,0.3865,0.3867,0.3868,0,0,0,0,0,0,0,0.3578,0.3587,0.368,0.3672,0.3677,0.3685,0.3694,0.3728,0.3772,0.3735,0.3738,0.3747,0.3812,0.3829,0.3835,0.3887,0.3863,0.3866,0.3868,0.387,0.3962,0.3963,0,0,0,0,0,0,0.3568,0.3583,0.3677,0.3682,0.3629,0.3687,0.3697,0.3718,0.3772,0.378,0.3747,0.3749,0.3823,0.3831,0.3838,0.3872,0.3867,0.387,0.3872,0.3962,0.3962,0.3963,0,0,0,0,0,0,0.3566,0.3577,0.3674,0.3634,0.3647,0.369,0.3713,0.372,0.3737,0.3781,0.3789,0.3757,0.3823,0.3833,0.3868,0.3875,0.3872,0.3875,0.3962,0.3962,0.3963,0.3941,0,0,0,0,0,0,0.3562,0.3575,0.3586,0.3634,0.3649,0.3704,0.3713,0.3722,0.3743,0.3745,0.3791,0.3799,0.3824,0.3863,0.3872,0.388,0.3878,0.3961,0.3962,0.3962,0.3941,0.394,0.394,0,0,0,0,0,0.3557,0.3577,0.3587,0.3598,0.3663,0.3704,0.3713,0.3741,0.3743,0.3754,0.3782,0.3797,0.3873,0.3866,0.3876,0.3886,0.3961,0.3962,0.3962,0.3941,0.3941,0.394,0,0,0,0,0,0,0.3529,0.3584,0.3595,0.3631,0.3662,0.371,0.3725,0.374,0.3771,0.3772,0.3806,0.3816,0.3848,0.3871,0.3862,0.3914,0.3918,0.3921,0.3898,0.3898,0.3898,0.3892,0.3881,0,0,0,0,0,0.3527,0.3556,0.3602,0.3629,0.3644,0.3681,0.37,0.3719,0.3754,0.3767,0.3798,0.383,0.3861,0.3881,0.3912,0.3944,0.3954,0.3956,0.3955,0.3955,0.3957,0.3975,0.3976,0.3965,0.3965,0.3965,0,0,0.3523,0.3556,0.3572,0.3624,0.3651,0.3679,0.3692,0.3722,0.3744,0.3772,0.3807,0.383,0.3868,0.3902,0.3919,0.3922,0.3962,0.3956,0.3955,0.3957,0.3976,0.3977,0.3978,0.3966,0.3966,0.3966,0,0,0.353,0.3559,0.3584,0.3611,0.3651,0.3676,0.3682,0.3727,0.3743,0.3779,0.3801,0.3826,0.3879,0.3905,0.3925,0.3942,0.3956,0.3951,0.3948,0.3965,0.3966,0.3967,0.3973,0.3974,0.3953,0.3953,0.3953,0,0.352,0.3565,0.3595,0.3624,0.3646,0.3672,0.3698,0.3722,0.377,0.3784,0.3787,0.3854,0.3881,0.3921,0.3925,0.3941,0.3948,0.3946,0.3964,0.3965,0.3966,0.3972,0.3974,0.3952,0.3952,0.3952,0.3952,0,0.355,0.3581,0.3596,0.3642,0.3666,0.3693,0.3727,0.3747,0.3763,0.3787,0.3823,0.3857,0.3895,0.3906,0.3923,0.3948,0.3949,0.3957,0.3962,0.3966,0.3972,0.3974,0.395,0.3951,0.3951,0.3951,0,0,0.3543,0.3605,0.361,0.3631,0.3678,0.3702,0.3729,0.3767,0.3783,0.3815,0.3839,0.3882,0.389,0.3913,0.3933,0.3948,0.3958,0.3955,0.3956,0.3954,0.3988,0.3982,0.3984,0.3968,0.3969,0.3969,0.3985,0,0.3556,0.3608,0.3636,0.3675,0.3703,0.3729,0.3753,0.3783,0.3806,0.3833,0.3858,0.3888,0.3897,0.391,0.3927,0.3954,0.3966,0.3953,0.3991,0.3992,0.398,0.3987,0.398,0.3993,0.3987,0.3988,0.3988,0,0.3579,0.3611,0.3654,0.3696,0.3709,0.3731,0.3767,0.3792,0.3827,0.3843,0.3868,0.3887,0.3917,0.3919,0.396,0.395,0.3967,0.3983,0.3984,0.3989,0.399,0.3992,0.3998,0.4,0.3992,0.3992,0.3991,0,0.3569,0.3623,0.3655,0.3673,0.3723,0.3737,0.3759,0.3794,0.3814,0.3846,0.3859,0.3893,0.3912,0.3938,0.3966,0.3965,0.4004,0.4008,0.4017,0.4016,0.4025,0.4024,0.4034,0.4035,0.4035,0.4035,0.4035,0,0.3582,0.3607,0.3652,0.3672,0.37,0.3731,0.3758,0.3782,0.3812,0.3836,0.386,0.3882,0.3918,0.3944,0.3966,0.3996,0.4005,0.4018,0.4023,0.4016,0.4014,0.4028,0.4027,0.4035,0.4035,0.4035,0.4035,0,0.3576,0.3607,0.3644,0.3689,0.37,0.3719,0.3757,0.3777,0.3801,0.3831,0.384,0.3877,0.391,0.394,0.3983,0.3998,0.4028,0.4035,0.4017,0.402,0.4027,0.4026,0.4046,0.405,0.4048,0.4048,0.4048,0,0.3582,0.3602,0.3649,0.3667,0.3688,0.3717,0.3738,0.3769,0.379,0.3831,0.3845,0.3879,0.3908,0.3959,0.3989,0.4022,0.403,0.4035,0.4035,0.4027,0.403,0.4029,0.4031,0.4035,0.4034,0.4034,0.4034,0,0.3589,0.3603,0.3633,0.3668,0.3693,0.3722,0.3751,0.3765,0.3801,0.3823,0.3857,0.3879,0.3923,0.3956,0.3992,0.4014,0.403,0.4034,0.4038,0.403,0.4019,0.4025,0.4015,0.4033,0.4033,0.4034,0.4034,0.4034,0.3589,0.3608,0.3644,0.3676,0.3702,0.3729,0.3749,0.3776,0.3804,0.3843,0.3859,0.3893,0.3926,0.3977,0.3998,0.4024,0.4028,0.4034,0.4035,0.4036,0.4034,0.4014,0.4031,0.4031,0.4031,0.4031,0.4031,0,0.3598,0.3622,0.3651,0.3692,0.3717,0.373,0.3764,0.3784,0.3813,0.3843,0.3871,0.3909,0.3941,0.3974,0.4008,0.4023,0.4031,0.4031,0.403,0.4035,0.4029,0.4023,0.4024,0.4024,0.4024,0.4024,0.4024,0.4024,0.3605,0.3637,0.3656,0.3701,0.3725,0.3758,0.3776,0.3801,0.3825,0.3866,0.3893,0.3915,0.3946,0.3982,0.4012,0.4021,0.4032,0.403,0.404,0.4035,0.4035,0.4036,0.403,0.4032,0.4032,0.4044,0.4044,0.4044]},{"header":{"parameterUnit":"m.s-1","parameterCategory":1,"la1":30.2991,"la2":30.254,"lo1":-89.0895,"lo2":-89.0444,"dy":0.0017,"dx":0.0017,"nx":28,"ny":28,"refTime":"2024-04-25T03:00:00:Z","depth":0,"parameterNumber":3,"parameterNumberName":"V-component_of_WINDS"},"data":[0,0,0,0,0,0,0,0,0,0,0,0,0,0,0,0,0,0,0,0,0,0,0,0,0,0,0,0,0,0,0,0,0,0,0,0,0,0,0,0,0,0,0,0,0,0,0,0,0,0,0,0,0,0,0,0,0,0,2.752,2.7519,0,2.7441,2.744,2.7439,2.7421,2.7422,2.7422,2.7423,2.7333,2.733,2.7328,0,0,0,0,0,0,0,0,0,0,0,0,0,2.7647,2.7645,2.752,2.7519,2.7518,2.7441,2.744,2.7439,2.7421,2.7422,2.7422,2.7423,2.7334,2.7331,2.7327,0,0,0,0,0,0,0,0,0,0,0,0,0,2.7582,2.7644,2.752,2.75,2.7497,2.7441,2.744,2.7439,2.7421,2.7422,2.7422,2.7423,2.7335,2.7331,2.7327,2.7283,0,0,2.7313,2.7312,0,0,0,0,0,0,0,0,2.7586,2.7577,2.7504,2.7501,2.7498,2.7442,2.7452,2.7386,2.742,2.7449,2.7423,2.7424,2.7368,2.7361,2.7344,2.7278,2.7275,2.7313,2.731,2.7308,2.7307,0,0,0,0,0,0,0,2.759,2.7581,2.7488,2.7503,2.7499,2.7492,2.7484,2.7439,2.7405,2.7447,2.7446,2.7437,2.7367,2.7348,2.7342,2.7273,2.7313,2.7309,2.7307,2.7305,2.7167,2.7166,0,0,0,0,0,0,2.76,2.7585,2.7491,2.7486,2.7545,2.7489,2.748,2.7459,2.7405,2.7398,2.7436,2.7436,2.7355,2.7347,2.7339,2.7283,2.7309,2.7304,2.7302,2.7168,2.7167,2.7166,0,0,0,0,0,0,2.7602,2.7591,2.7494,2.7535,2.7522,2.7486,2.7463,2.7457,2.7439,2.7397,2.739,2.7425,2.7356,2.7345,2.7297,2.728,2.7302,2.7298,2.7169,2.7168,2.7166,2.7172,0,0,0,0,0,0,2.7606,2.7593,2.7577,2.7535,2.752,2.7456,2.7462,2.7455,2.7432,2.7432,2.7384,2.7377,2.7356,2.7304,2.7293,2.7274,2.7295,2.7171,2.7169,2.7167,2.7173,2.7171,2.7169,0,0,0,0,0,2.7611,2.758,2.7576,2.7565,2.75,2.7455,2.7446,2.7425,2.7431,2.7414,2.7387,2.7379,2.7284,2.7299,2.7287,2.7266,2.7172,2.7169,2.7167,2.7174,2.7171,2.7169,0,0,0,0,0,0,2.7618,2.7574,2.757,2.7525,2.7494,2.7453,2.743,2.7423,2.7387,2.7388,2.736,2.7349,2.7303,2.728,2.7298,2.7221,2.7228,2.7223,2.7237,2.7234,2.7232,2.7238,2.7291,0,0,0,0,0,2.7615,2.7584,2.7547,2.7511,2.7496,2.7466,2.7445,2.7432,2.7398,2.7384,2.7354,2.7319,2.7281,2.7257,2.722,2.7171,2.7159,2.715,2.7148,2.7147,2.7142,2.7113,2.7109,2.7158,2.7158,2.7158,0,0,2.7607,2.7579,2.7561,2.7512,2.7486,2.7453,2.7455,2.742,2.7394,2.7377,2.7332,2.7308,2.7267,2.7219,2.7196,2.7198,2.7126,2.7144,2.7143,2.7139,2.711,2.7106,2.7102,2.7156,2.7157,2.7157,0,0,2.7575,2.7552,2.752,2.7495,2.7458,2.7439,2.7431,2.7391,2.7376,2.733,2.7317,2.7285,2.7221,2.7192,2.7169,2.7129,2.7119,2.7118,2.7105,2.7078,2.7074,2.707,2.7055,2.705,2.7113,2.7113,2.7113,0,2.7569,2.7521,2.7503,2.7469,2.7447,2.7434,2.74,2.7376,2.7328,2.7311,2.7316,2.7236,2.7207,2.7152,2.7142,2.7124,2.7113,2.7122,2.7077,2.7073,2.7069,2.7054,2.7048,2.7113,2.7113,2.7113,2.7113,0,2.7515,2.7482,2.746,2.7417,2.7393,2.7358,2.7333,2.731,2.7299,2.7278,2.7231,2.7197,2.7153,2.7139,2.7126,2.7081,2.7084,2.7083,2.7089,2.7065,2.705,2.7044,2.7113,2.7113,2.7113,2.7113,0,0,2.7484,2.7434,2.7425,2.7406,2.7365,2.7338,2.7302,2.7263,2.7243,2.721,2.7178,2.7126,2.7125,2.7099,2.7083,2.7059,2.7028,2.7061,2.7059,2.7055,2.6975,2.6975,2.6969,2.7023,2.7021,2.702,2.6978,0,2.7446,2.7386,2.7369,2.7317,2.7286,2.7274,2.7243,2.7213,2.7193,2.7162,2.7138,2.7101,2.7104,2.7088,2.7064,2.7037,2.7012,2.704,2.699,2.6989,2.7,2.6962,2.6961,2.6923,2.6972,2.6971,2.6971,0,2.7394,2.7364,2.731,2.7274,2.726,2.7233,2.7195,2.7166,2.7131,2.7118,2.7091,2.7078,2.7038,2.7048,2.6992,2.7012,2.6991,2.6975,2.6972,2.6965,2.6977,2.6952,2.691,2.6904,2.6962,2.6962,2.6963,0,2.7376,2.7321,2.7282,2.7266,2.7223,2.7204,2.7184,2.7151,2.7129,2.7095,2.7079,2.704,2.7018,2.6988,2.6963,2.6973,2.6909,2.6917,2.6895,2.6896,2.688,2.6881,2.6833,2.6869,2.6869,2.687,2.687,0,2.7335,2.7301,2.7273,2.7248,2.7211,2.7191,2.7153,2.7133,2.7104,2.7073,2.706,2.7031,2.7002,2.6969,2.6949,2.6905,2.6895,2.6882,2.6877,2.6882,2.6884,2.6867,2.6868,2.6868,2.6868,2.6869,2.6869,0,2.7306,2.7286,2.7243,2.7207,2.7197,2.717,2.7138,2.7113,2.7094,2.7055,2.7045,2.7014,2.6974,2.6948,2.6896,2.6883,2.6834,2.683,2.6847,2.6844,2.6823,2.6825,2.6761,2.6751,2.6795,2.6795,2.6794,0,2.7281,2.7256,2.7218,2.7199,2.718,2.7148,2.7126,2.7105,2.7082,2.7042,2.7021,2.6981,2.6948,2.6885,2.6855,2.6815,2.6809,2.679,2.6803,2.6809,2.6807,2.6809,2.6805,2.6787,2.6787,2.6786,2.6786,0,2.7237,2.7229,2.7199,2.7166,2.7141,2.7112,2.7084,2.7068,2.7042,2.7016,2.6977,2.6952,2.6901,2.686,2.6818,2.6795,2.6785,2.6783,2.6775,2.6779,2.679,2.6783,2.6839,2.6784,2.6784,2.6784,2.6784,2.6784,2.7209,2.7186,2.7156,2.7123,2.7101,2.7075,2.7049,2.7028,2.6996,2.6955,2.6945,2.6903,2.6869,2.6812,2.6789,2.6755,2.6756,2.6746,2.6743,2.674,2.6739,2.6797,2.6747,2.6747,2.6747,2.6747,2.6747,0,2.7163,2.7145,2.7115,2.7077,2.7051,2.7048,2.7016,2.6993,2.6959,2.6929,2.6898,2.6852,2.6814,2.6783,2.6742,2.6721,2.6715,2.6711,2.6711,2.6706,2.6741,2.6751,2.6716,2.6716,2.6716,2.6716,2.6716,2.6716,2.7137,2.7098,2.7086,2.7035,2.7016,2.6978,2.696,2.6936,2.6912,2.6863,2.6832,2.6814,2.6783,2.674,2.6704,2.6696,2.668,2.6677,2.6667,2.67,2.6703,2.6706,2.6716,2.6674,2.6674,2.6635,2.6634,2.6634]}]]